owner,sensor,date,latitude,longitude,vertical_datum,mass_concentration_of_oxygen_in_sea_water,qcFlag 
SCCF RECON,ioos:station:SCCF:56:1,2019-07-01T04:00:00Z,26.4645,-82.1044,1.875,6.52,11111222 
SCCF RECON,ioos:station:SCCF:56:1,2019-07-01T05:00:00Z,26.4645,-82.1044,1.943,6.18,11111222 
SCCF RECON,ioos:station:SCCF:56:1,2019-07-01T06:00:00Z,26.4645,-82.1044,1.986,5.88,11111222 
SCCF RECON,ioos:station:SCCF:56:1,2019-07-01T07:00:00Z,26.4645,-82.1044,1.943,6.82,11111222 
SCCF RECON,ioos:station:SCCF:56:1,2019-07-01T08:00:00Z,26.4645,-82.1044,1.829,6.25,11111222 
SCCF RECON,ioos:station:SCCF:56:1,2019-07-01T09:00:00Z,26.4645,-82.1044,1.76,5.34,11111222 
SCCF RECON,ioos:station:SCCF:56:1,2019-07-01T10:00:00Z,26.4645,-82.1044,1.721,4.9,11111222 
SCCF RECON,ioos:station:SCCF:56:1,2019-07-01T11:00:00Z,26.4645,-82.1044,1.746,4.81,11111222 
SCCF RECON,ioos:station:SCCF:56:1,2019-07-01T12:00:00Z,26.4645,-82.1044,1.826,4.15,11111222 
SCCF RECON,ioos:station:SCCF:56:1,2019-07-01T13:00:00Z,26.4645,-82.1044,1.941,3.14,11111222 
SCCF RECON,ioos:station:SCCF:56:1,2019-07-01T14:00:00Z,26.4645,-82.1044,2.057,3.24,11111222 
SCCF RECON,ioos:station:SCCF:56:1,2019-07-01T16:00:00Z,26.4645,-82.1044,2.167,5.33,11111222 
SCCF RECON,ioos:station:SCCF:56:1,2019-07-01T17:00:00Z,26.4645,-82.1044,2.104,5.62,11111222 
SCCF RECON,ioos:station:SCCF:56:1,2019-07-01T18:00:00Z,26.4645,-82.1044,1.999,5.12,11111222 
SCCF RECON,ioos:station:SCCF:56:1,2019-07-01T19:00:00Z,26.4645,-82.1044,1.851,5.58,11111222 
SCCF RECON,ioos:station:SCCF:56:1,2019-07-01T20:00:00Z,26.4645,-82.1044,1.704,6.2,11111222 
SCCF RECON,ioos:station:SCCF:56:1,2019-07-01T21:00:00Z,26.4645,-82.1044,1.557,6.54,11111222 
SCCF RECON,ioos:station:SCCF:56:1,2019-07-01T22:00:00Z,26.4645,-82.1044,1.421,6.64,11111222 
SCCF RECON,ioos:station:SCCF:56:1,2019-07-01T23:00:00Z,26.4645,-82.1044,1.302,6.22,11111222 
SCCF RECON,ioos:station:SCCF:56:1,2019-07-02T04:00:00Z,26.4645,-82.1044,1.698,5.63,11111222 
SCCF RECON,ioos:station:SCCF:56:1,2019-07-02T05:00:00Z,26.4645,-82.1044,1.824,4.54,11111222 
SCCF RECON,ioos:station:SCCF:56:1,2019-07-02T06:00:00Z,26.4645,-82.1044,1.895,4.39,11111222 
SCCF RECON,ioos:station:SCCF:56:1,2019-07-02T07:00:00Z,26.4645,-82.1044,1.893,5.12,11111222 
SCCF RECON,ioos:station:SCCF:56:1,2019-07-02T08:00:00Z,26.4645,-82.1044,1.804,4.83,11111222 
SCCF RECON,ioos:station:SCCF:56:1,2019-07-02T09:00:00Z,26.4645,-82.1044,1.726,4.61,11111222 
SCCF RECON,ioos:station:SCCF:56:1,2019-07-02T10:00:00Z,26.4645,-82.1044,1.703,4.43,11111222 
SCCF RECON,ioos:station:SCCF:56:1,2019-07-02T11:00:00Z,26.4645,-82.1044,1.71,4.18,11111222 
SCCF RECON,ioos:station:SCCF:56:1,2019-07-02T12:00:00Z,26.4645,-82.1044,1.744,3.34,11111222 
SCCF RECON,ioos:station:SCCF:56:1,2019-07-02T13:00:00Z,26.4645,-82.1044,1.812,3.33,11111222 
SCCF RECON,ioos:station:SCCF:56:1,2019-07-02T14:00:00Z,26.4645,-82.1044,1.93,3.85,11111222 
SCCF RECON,ioos:station:SCCF:56:1,2019-07-02T15:00:00Z,26.4645,-82.1044,2.053,4.89,11111222 
SCCF RECON,ioos:station:SCCF:56:1,2019-07-02T16:00:00Z,26.4645,-82.1044,2.142,5.84,11111222 
SCCF RECON,ioos:station:SCCF:56:1,2019-07-02T17:00:00Z,26.4645,-82.1044,2.157,6.67,11111222 
SCCF RECON,ioos:station:SCCF:56:1,2019-07-02T18:00:00Z,26.4645,-82.1044,2.106,6.91,11111222 
SCCF RECON,ioos:station:SCCF:56:1,2019-07-02T19:00:00Z,26.4645,-82.1044,1.996,5.65,11111222 
SCCF RECON,ioos:station:SCCF:56:1,2019-07-02T20:00:00Z,26.4645,-82.1044,1.821,6.78,11111222 
SCCF RECON,ioos:station:SCCF:56:1,2019-07-02T21:00:00Z,26.4645,-82.1044,1.653,6.71,11111222 
SCCF RECON,ioos:station:SCCF:56:1,2019-07-02T22:00:00Z,26.4645,-82.1044,1.504,7.09,11111222 
SCCF RECON,ioos:station:SCCF:56:1,2019-07-02T23:00:00Z,26.4645,-82.1044,1.378,7.33,11111222 
SCCF RECON,ioos:station:SCCF:56:1,2019-07-03T04:00:00Z,26.4645,-82.1044,1.6,4.88,11111222 
SCCF RECON,ioos:station:SCCF:56:1,2019-07-03T05:00:00Z,26.4645,-82.1044,1.746,4.25,11111222 
SCCF RECON,ioos:station:SCCF:56:1,2019-07-03T06:00:00Z,26.4645,-82.1044,1.856,3.8,11111222 
SCCF RECON,ioos:station:SCCF:56:1,2019-07-03T07:00:00Z,26.4645,-82.1044,1.922,3.71,11111222 
SCCF RECON,ioos:station:SCCF:56:1,2019-07-03T08:00:00Z,26.4645,-82.1044,1.909,3.99,11111222 
SCCF RECON,ioos:station:SCCF:56:1,2019-07-03T09:00:00Z,26.4645,-82.1044,1.799,4.38,11111222 
SCCF RECON,ioos:station:SCCF:56:1,2019-07-03T10:00:00Z,26.4645,-82.1044,1.724,3.95,11111222 
SCCF RECON,ioos:station:SCCF:56:1,2019-07-03T11:00:00Z,26.4645,-82.1044,1.682,3.37,11111222 
SCCF RECON,ioos:station:SCCF:56:1,2019-07-03T12:00:00Z,26.4645,-82.1044,1.655,2.87,11111222 
SCCF RECON,ioos:station:SCCF:56:1,2019-07-03T13:00:00Z,26.4645,-82.1044,1.712,2.82,11111222 
SCCF RECON,ioos:station:SCCF:56:1,2019-07-03T14:00:00Z,26.4645,-82.1044,1.827,4.47,11111222 
SCCF RECON,ioos:station:SCCF:56:1,2019-07-03T15:00:00Z,26.4645,-82.1044,1.976,4.68,11111222 
SCCF RECON,ioos:station:SCCF:56:1,2019-07-03T16:00:00Z,26.4645,-82.1044,2.091,4.76,11111222 
SCCF RECON,ioos:station:SCCF:56:1,2019-07-03T17:00:00Z,26.4645,-82.1044,2.16,6.01,11111222 
SCCF RECON,ioos:station:SCCF:56:1,2019-07-03T18:00:00Z,26.4645,-82.1044,2.17,6.58,11111222 
SCCF RECON,ioos:station:SCCF:56:1,2019-07-03T19:00:00Z,26.4645,-82.1044,2.093,6.87,11111222 
SCCF RECON,ioos:station:SCCF:56:1,2019-07-03T20:00:00Z,26.4645,-82.1044,1.95,6.73,11111222 
SCCF RECON,ioos:station:SCCF:56:1,2019-07-03T21:00:00Z,26.4645,-82.1044,1.773,6.44,11111222 
SCCF RECON,ioos:station:SCCF:56:1,2019-07-03T22:00:00Z,26.4645,-82.1044,1.636,6.24,11111222 
SCCF RECON,ioos:station:SCCF:56:1,2019-07-03T23:00:00Z,26.4645,-82.1044,1.483,6.38,11111222 
SCCF RECON,ioos:station:SCCF:56:1,2019-07-04T04:00:00Z,26.4645,-82.1044,1.458,5.29,11111222 
SCCF RECON,ioos:station:SCCF:56:1,2019-07-04T05:00:00Z,26.4645,-82.1044,1.611,5.14,11111222 
SCCF RECON,ioos:station:SCCF:56:1,2019-07-04T06:00:00Z,26.4645,-82.1044,1.751,4.87,11111222 
SCCF RECON,ioos:station:SCCF:56:1,2019-07-04T07:00:00Z,26.4645,-82.1044,1.846,4.07,11111222 
SCCF RECON,ioos:station:SCCF:56:1,2019-07-04T08:00:00Z,26.4645,-82.1044,1.881,4.12,11111222 
SCCF RECON,ioos:station:SCCF:56:1,2019-07-04T09:00:00Z,26.4645,-82.1044,1.858,4.6,11111222 
SCCF RECON,ioos:station:SCCF:56:1,2019-07-04T10:00:00Z,26.4645,-82.1044,1.776,3.94,11111222 
SCCF RECON,ioos:station:SCCF:56:1,2019-07-04T11:00:00Z,26.4645,-82.1044,1.716,3.61,11111222 
SCCF RECON,ioos:station:SCCF:56:1,2019-07-04T12:00:00Z,26.4645,-82.1044,1.687,3.38,11111222 
SCCF RECON,ioos:station:SCCF:56:1,2019-07-04T13:00:00Z,26.4645,-82.1044,1.711,3.09,11111222 
SCCF RECON,ioos:station:SCCF:56:1,2019-07-04T14:00:00Z,26.4645,-82.1044,1.789,3.28,11111222 
SCCF RECON,ioos:station:SCCF:56:1,2019-07-04T15:00:00Z,26.4645,-82.1044,1.915,5.25,11111222 
SCCF RECON,ioos:station:SCCF:56:1,2019-07-04T16:00:00Z,26.4645,-82.1044,2.049,5.22,11111222 
SCCF RECON,ioos:station:SCCF:56:1,2019-07-04T17:00:00Z,26.4645,-82.1044,2.146,6.49,11111222 
SCCF RECON,ioos:station:SCCF:56:1,2019-07-04T18:00:00Z,26.4645,-82.1044,2.186,6.21,11111222 
SCCF RECON,ioos:station:SCCF:56:1,2019-07-04T19:00:00Z,26.4645,-82.1044,2.185,6.32,11111222 
SCCF RECON,ioos:station:SCCF:56:1,2019-07-04T20:00:00Z,26.4645,-82.1044,2.112,6.98,11111222 
SCCF RECON,ioos:station:SCCF:56:1,2019-07-04T21:00:00Z,26.4645,-82.1044,1.976,6.61,11111222 
SCCF RECON,ioos:station:SCCF:56:1,2019-07-04T22:00:00Z,26.4645,-82.1044,1.823,6.24,11111222 
SCCF RECON,ioos:station:SCCF:56:1,2019-07-04T23:00:00Z,26.4645,-82.1044,1.664,5.89,11111222 
SCCF RECON,ioos:station:SCCF:56:1,2019-07-05T04:00:00Z,26.4645,-82.1044,1.43,2.61,11111222 
SCCF RECON,ioos:station:SCCF:56:1,2019-07-05T05:00:00Z,26.4645,-82.1044,1.603,3.85,11111222 
SCCF RECON,ioos:station:SCCF:56:1,2019-07-05T06:00:00Z,26.4645,-82.1044,1.746,4.53,11111222 
SCCF RECON,ioos:station:SCCF:56:1,2019-07-05T07:00:00Z,26.4645,-82.1044,1.847,3.66,11111222 
SCCF RECON,ioos:station:SCCF:56:1,2019-07-05T08:00:00Z,26.4645,-82.1044,1.913,3.38,11111222 
SCCF RECON,ioos:station:SCCF:56:1,2019-07-05T09:00:00Z,26.4645,-82.1044,1.945,3.52,11111222 
SCCF RECON,ioos:station:SCCF:56:1,2019-07-05T10:00:00Z,26.4645,-82.1044,1.888,3.85,11111222 
SCCF RECON,ioos:station:SCCF:56:1,2019-07-05T11:00:00Z,26.4645,-82.1044,1.794,3.61,11111222 
SCCF RECON,ioos:station:SCCF:56:1,2019-07-05T12:00:00Z,26.4645,-82.1044,1.757,3.15,11111222 
SCCF RECON,ioos:station:SCCF:56:1,2019-07-05T13:00:00Z,26.4645,-82.1044,1.72,2.84,11111222 
SCCF RECON,ioos:station:SCCF:56:1,2019-07-05T14:00:00Z,26.4645,-82.1044,1.751,2.54,11111222 
SCCF RECON,ioos:station:SCCF:56:1,2019-07-05T15:00:00Z,26.4645,-82.1044,1.843,3.46,11111222 
SCCF RECON,ioos:station:SCCF:56:1,2019-07-05T16:00:00Z,26.4645,-82.1044,1.965,4.47,11111222 
SCCF RECON,ioos:station:SCCF:56:1,2019-07-05T17:00:00Z,26.4645,-82.1044,2.069,6.22,11111222 
SCCF RECON,ioos:station:SCCF:56:1,2019-07-05T18:00:00Z,26.4645,-82.1044,2.141,6.37,11111222 
SCCF RECON,ioos:station:SCCF:56:1,2019-07-05T19:00:00Z,26.4645,-82.1044,2.188,6.91,11111222 
SCCF RECON,ioos:station:SCCF:56:1,2019-07-05T20:00:00Z,26.4645,-82.1044,2.185,6.98,11111222 
SCCF RECON,ioos:station:SCCF:56:1,2019-07-05T21:00:00Z,26.4645,-82.1044,2.085,6.8,11111222 
SCCF RECON,ioos:station:SCCF:56:1,2019-07-05T22:00:00Z,26.4645,-82.1044,1.959,5.77,11111222 
SCCF RECON,ioos:station:SCCF:56:1,2019-07-05T23:00:00Z,26.4645,-82.1044,1.809,5.24,11111222 
SCCF RECON,ioos:station:SCCF:56:1,2019-07-06T04:00:00Z,26.4645,-82.1044,1.285,1.22,11111222 
SCCF RECON,ioos:station:SCCF:56:1,2019-07-06T05:00:00Z,26.4645,-82.1044,1.455,2.63,11111222 
SCCF RECON,ioos:station:SCCF:56:1,2019-07-06T06:00:00Z,26.4645,-82.1044,1.641,3.42,11111222 
SCCF RECON,ioos:station:SCCF:56:1,2019-07-06T07:00:00Z,26.4645,-82.1044,1.77,3.59,11111222 
SCCF RECON,ioos:station:SCCF:56:1,2019-07-06T08:00:00Z,26.4645,-82.1044,1.878,3.0,11111222 
SCCF RECON,ioos:station:SCCF:56:1,2019-07-06T09:00:00Z,26.4645,-82.1044,1.915,3.54,11111222 
SCCF RECON,ioos:station:SCCF:56:1,2019-07-06T10:00:00Z,26.4645,-82.1044,1.915,4.02,11111222 
SCCF RECON,ioos:station:SCCF:56:1,2019-07-06T11:00:00Z,26.4645,-82.1044,1.846,3.43,11111222 
SCCF RECON,ioos:station:SCCF:56:1,2019-07-06T12:00:00Z,26.4645,-82.1044,1.754,3.0,11111222 
SCCF RECON,ioos:station:SCCF:56:1,2019-07-06T13:00:00Z,26.4645,-82.1044,1.703,2.49,11111222 
SCCF RECON,ioos:station:SCCF:56:1,2019-07-06T14:00:00Z,26.4645,-82.1044,1.68,2.04,11111222 
SCCF RECON,ioos:station:SCCF:56:1,2019-07-06T15:00:00Z,26.4645,-82.1044,1.701,1.91,11111222 
SCCF RECON,ioos:station:SCCF:56:1,2019-07-06T16:00:00Z,26.4645,-82.1044,1.77,3.63,11111222 
SCCF RECON,ioos:station:SCCF:56:1,2019-07-06T17:00:00Z,26.4645,-82.1044,1.857,6.25,11111222 
SCCF RECON,ioos:station:SCCF:56:1,2019-07-06T18:00:00Z,26.4645,-82.1044,1.976,7.33,11111222 
SCCF RECON,ioos:station:SCCF:56:1,2019-07-06T19:00:00Z,26.4645,-82.1044,2.04,7.77,11111222 
SCCF RECON,ioos:station:SCCF:56:1,2019-07-06T20:00:00Z,26.4645,-82.1044,2.069,7.26,11111222 
SCCF RECON,ioos:station:SCCF:56:1,2019-07-06T21:00:00Z,26.4645,-82.1044,2.077,7.07,11111222 
SCCF RECON,ioos:station:SCCF:56:1,2019-07-06T22:00:00Z,26.4645,-82.1044,2.015,7.08,11111222 
SCCF RECON,ioos:station:SCCF:56:1,2019-07-06T23:00:00Z,26.4645,-82.1044,1.893,6.98,11111222 
SCCF RECON,ioos:station:SCCF:56:1,2019-07-07T04:00:00Z,26.4645,-82.1044,1.289,2.87,11111222 
SCCF RECON,ioos:station:SCCF:56:1,2019-07-07T05:00:00Z,26.4645,-82.1044,1.376,2.54,11111222 
SCCF RECON,ioos:station:SCCF:56:1,2019-07-07T06:00:00Z,26.4645,-82.1044,1.551,3.85,11111222 
SCCF RECON,ioos:station:SCCF:56:1,2019-07-07T07:00:00Z,26.4645,-82.1044,1.684,3.28,11111222 
SCCF RECON,ioos:station:SCCF:56:1,2019-07-07T08:00:00Z,26.4645,-82.1044,1.801,2.49,11111222 
SCCF RECON,ioos:station:SCCF:56:1,2019-07-07T09:00:00Z,26.4645,-82.1044,1.892,2.75,11111222 
SCCF RECON,ioos:station:SCCF:56:1,2019-07-07T10:00:00Z,26.4645,-82.1044,1.941,3.55,11111222 
SCCF RECON,ioos:station:SCCF:56:1,2019-07-07T11:00:00Z,26.4645,-82.1044,1.918,3.41,11111222 
SCCF RECON,ioos:station:SCCF:56:1,2019-07-07T12:00:00Z,26.4645,-82.1044,1.819,3.41,11111222 
SCCF RECON,ioos:station:SCCF:56:1,2019-07-07T13:00:00Z,26.4645,-82.1044,1.743,3.16,11111222 
SCCF RECON,ioos:station:SCCF:56:1,2019-07-07T14:00:00Z,26.4645,-82.1044,1.685,3.14,11111222 
SCCF RECON,ioos:station:SCCF:56:1,2019-07-07T15:00:00Z,26.4645,-82.1044,1.669,2.56,11111222 
SCCF RECON,ioos:station:SCCF:56:1,2019-07-07T16:00:00Z,26.4645,-82.1044,1.659,2.54,11111222 
SCCF RECON,ioos:station:SCCF:56:1,2019-07-07T17:00:00Z,26.4645,-82.1044,1.711,2.67,11111222 
SCCF RECON,ioos:station:SCCF:56:1,2019-07-07T18:00:00Z,26.4645,-82.1044,1.83,3.62,11111222 
SCCF RECON,ioos:station:SCCF:56:1,2019-07-07T19:00:00Z,26.4645,-82.1044,1.936,5.3,11111222 
SCCF RECON,ioos:station:SCCF:56:1,2019-07-07T20:00:00Z,26.4645,-82.1044,1.976,6.35,11111222 
SCCF RECON,ioos:station:SCCF:56:1,2019-07-07T21:00:00Z,26.4645,-82.1044,1.979,6.25,11111222 
SCCF RECON,ioos:station:SCCF:56:1,2019-07-07T22:00:00Z,26.4645,-82.1044,1.944,6.48,11111222 
SCCF RECON,ioos:station:SCCF:56:1,2019-07-07T23:00:00Z,26.4645,-82.1044,1.912,6.71,11111222 
SCCF RECON,ioos:station:SCCF:56:1,2019-07-08T04:00:00Z,26.4645,-82.1044,1.386,2.95,11111222 
SCCF RECON,ioos:station:SCCF:56:1,2019-07-08T05:00:00Z,26.4645,-82.1044,1.336,2.44,11111222 
SCCF RECON,ioos:station:SCCF:56:1,2019-07-08T06:00:00Z,26.4645,-82.1044,1.426,1.76,11111222 
SCCF RECON,ioos:station:SCCF:56:1,2019-07-08T07:00:00Z,26.4645,-82.1044,1.59,1.09,11111222 
SCCF RECON,ioos:station:SCCF:56:1,2019-07-08T08:00:00Z,26.4645,-82.1044,1.74,1.45,11111222 
SCCF RECON,ioos:station:SCCF:56:1,2019-07-08T09:00:00Z,26.4645,-82.1044,1.834,2.57,11111222 
SCCF RECON,ioos:station:SCCF:56:1,2019-07-08T10:00:00Z,26.4645,-82.1044,1.891,3.06,11111222 
SCCF RECON,ioos:station:SCCF:56:1,2019-07-08T11:00:00Z,26.4645,-82.1044,1.92,3.01,11111222 
SCCF RECON,ioos:station:SCCF:56:1,2019-07-08T12:00:00Z,26.4645,-82.1044,1.913,2.69,11111222 
SCCF RECON,ioos:station:SCCF:56:1,2019-07-08T13:00:00Z,26.4645,-82.1044,1.786,3.2,11111222 
SCCF RECON,ioos:station:SCCF:56:1,2019-07-08T14:00:00Z,26.4645,-82.1044,1.719,2.5,11111222 
SCCF RECON,ioos:station:SCCF:56:1,2019-07-08T15:00:00Z,26.4645,-82.1044,1.658,2.56,11111222 
SCCF RECON,ioos:station:SCCF:56:1,2019-07-08T16:00:00Z,26.4645,-82.1044,1.601,2.45,11111222 
SCCF RECON,ioos:station:SCCF:56:1,2019-07-08T17:00:00Z,26.4645,-82.1044,1.526,2.89,11111222 
SCCF RECON,ioos:station:SCCF:56:1,2019-07-08T18:00:00Z,26.4645,-82.1044,1.536,3.05,11111222 
SCCF RECON,ioos:station:SCCF:56:1,2019-07-08T19:00:00Z,26.4645,-82.1044,1.656,4.35,11111222 
SCCF RECON,ioos:station:SCCF:56:1,2019-07-08T20:00:00Z,26.4645,-82.1044,1.746,5.81,11111222 
SCCF RECON,ioos:station:SCCF:56:1,2019-07-08T21:00:00Z,26.4645,-82.1044,1.824,6.06,11111222 
SCCF RECON,ioos:station:SCCF:56:1,2019-07-08T22:00:00Z,26.4645,-82.1044,1.868,5.46,11111222 
SCCF RECON,ioos:station:SCCF:56:1,2019-07-08T23:00:00Z,26.4645,-82.1044,1.904,5.74,11111222 
SCCF RECON,ioos:station:SCCF:56:1,2019-07-09T04:00:00Z,26.4645,-82.1044,1.496,4.48,11111222 
SCCF RECON,ioos:station:SCCF:56:1,2019-07-09T05:00:00Z,26.4645,-82.1044,1.445,3.91,11111222 
SCCF RECON,ioos:station:SCCF:56:1,2019-07-09T06:00:00Z,26.4645,-82.1044,1.436,3.11,11111222 
SCCF RECON,ioos:station:SCCF:56:1,2019-07-09T07:00:00Z,26.4645,-82.1044,1.539,2.49,11111222 
SCCF RECON,ioos:station:SCCF:56:1,2019-07-09T08:00:00Z,26.4645,-82.1044,1.698,1.86,11111222 
SCCF RECON,ioos:station:SCCF:56:1,2019-07-09T09:00:00Z,26.4645,-82.1044,1.826,1.72,11111222 
SCCF RECON,ioos:station:SCCF:56:1,2019-07-09T10:00:00Z,26.4645,-82.1044,1.918,2.77,11111222 
SCCF RECON,ioos:station:SCCF:56:1,2019-07-09T11:00:00Z,26.4645,-82.1044,2.003,2.8,11111222 
SCCF RECON,ioos:station:SCCF:56:1,2019-07-09T12:00:00Z,26.4645,-82.1044,2.002,3.23,11111222 
SCCF RECON,ioos:station:SCCF:56:1,2019-07-09T13:00:00Z,26.4645,-82.1044,1.946,3.32,11111222 
SCCF RECON,ioos:station:SCCF:56:1,2019-07-09T14:00:00Z,26.4645,-82.1044,1.876,3.22,11111222 
SCCF RECON,ioos:station:SCCF:56:1,2019-07-09T15:00:00Z,26.4645,-82.1044,1.856,3.2,11111222 
SCCF RECON,ioos:station:SCCF:56:1,2019-07-09T16:00:00Z,26.4645,-82.1044,1.71,3.34,11111222 
SCCF RECON,ioos:station:SCCF:56:1,2019-07-09T17:00:00Z,26.4645,-82.1044,1.594,2.95,11111222 
SCCF RECON,ioos:station:SCCF:56:1,2019-07-09T18:00:00Z,26.4645,-82.1044,1.532,3.27,11111222 
SCCF RECON,ioos:station:SCCF:56:1,2019-07-09T19:00:00Z,26.4645,-82.1044,1.526,3.08,11111222 
SCCF RECON,ioos:station:SCCF:56:1,2019-07-09T20:00:00Z,26.4645,-82.1044,1.601,3.79,11111222 
SCCF RECON,ioos:station:SCCF:56:1,2019-07-09T21:00:00Z,26.4645,-82.1044,1.709,6.33,11111222 
SCCF RECON,ioos:station:SCCF:56:1,2019-07-09T22:00:00Z,26.4645,-82.1044,1.799,6.16,11111222 
SCCF RECON,ioos:station:SCCF:56:1,2019-07-09T23:00:00Z,26.4645,-82.1044,1.867,5.77,11111222 
SCCF RECON,ioos:station:SCCF:56:1,2019-07-10T04:00:00Z,26.4645,-82.1044,1.638,4.91,11111222 
SCCF RECON,ioos:station:SCCF:56:1,2019-07-10T05:00:00Z,26.4645,-82.1044,1.548,4.08,11111222 
SCCF RECON,ioos:station:SCCF:56:1,2019-07-10T06:00:00Z,26.4645,-82.1044,1.471,3.29,11111222 
SCCF RECON,ioos:station:SCCF:56:1,2019-07-10T07:00:00Z,26.4645,-82.1044,1.484,2.58,11111222 
SCCF RECON,ioos:station:SCCF:56:1,2019-07-10T08:00:00Z,26.4645,-82.1044,1.599,2.27,11111222 
SCCF RECON,ioos:station:SCCF:56:1,2019-07-10T09:00:00Z,26.4645,-82.1044,1.735,1.65,11111222 
SCCF RECON,ioos:station:SCCF:56:1,2019-07-10T10:00:00Z,26.4645,-82.1044,1.849,1.43,11111222 
SCCF RECON,ioos:station:SCCF:56:1,2019-07-10T11:00:00Z,26.4645,-82.1044,1.947,1.5,11111222 
SCCF RECON,ioos:station:SCCF:56:1,2019-07-10T12:00:00Z,26.4645,-82.1044,2.023,2.4,11111222 
SCCF RECON,ioos:station:SCCF:56:1,2019-07-10T13:00:00Z,26.4645,-82.1044,2.034,3.07,11111222 
SCCF RECON,ioos:station:SCCF:56:1,2019-07-10T14:00:00Z,26.4645,-82.1044,1.935,3.66,11111222 
SCCF RECON,ioos:station:SCCF:56:1,2019-07-10T15:00:00Z,26.4645,-82.1044,1.832,3.85,11111222 
SCCF RECON,ioos:station:SCCF:56:1,2019-07-10T16:00:00Z,26.4645,-82.1044,1.738,4.14,11111222 
SCCF RECON,ioos:station:SCCF:56:1,2019-07-10T17:00:00Z,26.4645,-82.1044,1.628,4.3,11111222 
SCCF RECON,ioos:station:SCCF:56:1,2019-07-10T18:00:00Z,26.4645,-82.1044,1.528,4.87,11111222 
SCCF RECON,ioos:station:SCCF:56:1,2019-07-10T19:00:00Z,26.4645,-82.1044,1.446,5.27,11111222 
SCCF RECON,ioos:station:SCCF:56:1,2019-07-10T20:00:00Z,26.4645,-82.1044,1.429,5.3,11111222 
SCCF RECON,ioos:station:SCCF:56:1,2019-07-10T21:00:00Z,26.4645,-82.1044,1.496,5.56,11111222 
SCCF RECON,ioos:station:SCCF:56:1,2019-07-10T22:00:00Z,26.4645,-82.1044,1.583,7.75,11111222 
SCCF RECON,ioos:station:SCCF:56:1,2019-07-10T23:00:00Z,26.4645,-82.1044,1.676,8.48,11111222 
SCCF RECON,ioos:station:SCCF:56:1,2019-07-11T04:00:00Z,26.4645,-82.1044,1.766,6.81,11111222 
SCCF RECON,ioos:station:SCCF:56:1,2019-07-11T05:00:00Z,26.4645,-82.1044,1.686,7.11,11111222 
SCCF RECON,ioos:station:SCCF:56:1,2019-07-11T06:00:00Z,26.4645,-82.1044,1.632,7.13,11111222 
SCCF RECON,ioos:station:SCCF:56:1,2019-07-11T07:00:00Z,26.4645,-82.1044,1.582,6.43,11111222 
SCCF RECON,ioos:station:SCCF:56:1,2019-07-11T08:00:00Z,26.4645,-82.1044,1.601,5.58,11111222 
SCCF RECON,ioos:station:SCCF:56:1,2019-07-11T09:00:00Z,26.4645,-82.1044,1.696,4.68,11111222 
SCCF RECON,ioos:station:SCCF:56:1,2019-07-11T10:00:00Z,26.4645,-82.1044,1.825,3.53,11111222 
SCCF RECON,ioos:station:SCCF:56:1,2019-07-11T11:00:00Z,26.4645,-82.1044,1.938,3.42,11111222 
SCCF RECON,ioos:station:SCCF:56:1,2019-07-11T12:00:00Z,26.4645,-82.1044,2.037,3.95,11111222 
SCCF RECON,ioos:station:SCCF:56:1,2019-07-11T13:00:00Z,26.4645,-82.1044,2.047,4.52,11111222 
SCCF RECON,ioos:station:SCCF:56:1,2019-07-11T14:00:00Z,26.4645,-82.1044,2.041,4.94,11111222 
SCCF RECON,ioos:station:SCCF:56:1,2019-07-11T15:00:00Z,26.4645,-82.1044,2.014,5.04,11111222 
SCCF RECON,ioos:station:SCCF:56:1,2019-07-11T16:00:00Z,26.4645,-82.1044,1.913,5.66,11111222 
SCCF RECON,ioos:station:SCCF:56:1,2019-07-11T17:00:00Z,26.4645,-82.1044,1.784,5.82,11111222 
SCCF RECON,ioos:station:SCCF:56:1,2019-07-11T18:00:00Z,26.4645,-82.1044,1.682,6.45,11111222 
SCCF RECON,ioos:station:SCCF:56:1,2019-07-11T19:00:00Z,26.4645,-82.1044,1.61,6.16,11111222 
SCCF RECON,ioos:station:SCCF:56:1,2019-07-11T20:00:00Z,26.4645,-82.1044,1.44,6.19,11111222 
SCCF RECON,ioos:station:SCCF:56:1,2019-07-11T21:00:00Z,26.4645,-82.1044,1.491,5.99,11111222 
SCCF RECON,ioos:station:SCCF:56:1,2019-07-11T22:00:00Z,26.4645,-82.1044,1.437,5.9,11111222 
SCCF RECON,ioos:station:SCCF:56:1,2019-07-11T23:00:00Z,26.4645,-82.1044,1.532,4.96,11111222 
SCCF RECON,ioos:station:SCCF:56:1,2019-07-12T04:00:00Z,26.4645,-82.1044,1.813,4.36,11111222 
SCCF RECON,ioos:station:SCCF:56:1,2019-07-12T05:00:00Z,26.4645,-82.1044,1.845,4.78,11111222 
SCCF RECON,ioos:station:SCCF:56:1,2019-07-12T06:00:00Z,26.4645,-82.1044,1.889,4.71,11111222 
SCCF RECON,ioos:station:SCCF:56:1,2019-07-12T07:00:00Z,26.4645,-82.1044,1.809,3.95,11111222 
SCCF RECON,ioos:station:SCCF:56:1,2019-07-12T08:00:00Z,26.4645,-82.1044,1.703,4.32,11111222 
SCCF RECON,ioos:station:SCCF:56:1,2019-07-12T09:00:00Z,26.4645,-82.1044,1.737,4.09,11111222 
SCCF RECON,ioos:station:SCCF:56:1,2019-07-12T10:00:00Z,26.4645,-82.1044,1.828,3.64,11111222 
SCCF RECON,ioos:station:SCCF:56:1,2019-07-12T11:00:00Z,26.4645,-82.1044,1.927,3.74,11111222 
SCCF RECON,ioos:station:SCCF:56:1,2019-07-12T12:00:00Z,26.4645,-82.1044,2.006,3.71,11111222 
SCCF RECON,ioos:station:SCCF:56:1,2019-07-12T13:00:00Z,26.4645,-82.1044,2.067,3.81,11111222 
SCCF RECON,ioos:station:SCCF:56:1,2019-07-12T14:00:00Z,26.4645,-82.1044,2.079,3.32,11111222 
SCCF RECON,ioos:station:SCCF:56:1,2019-07-12T15:00:00Z,26.4645,-82.1044,2.036,3.93,11111222 
SCCF RECON,ioos:station:SCCF:56:1,2019-07-12T16:00:00Z,26.4645,-82.1044,1.927,4.71,11111222 
SCCF RECON,ioos:station:SCCF:56:1,2019-07-12T17:00:00Z,26.4645,-82.1044,1.8,4.51,11111222 
SCCF RECON,ioos:station:SCCF:56:1,2019-07-12T18:00:00Z,26.4645,-82.1044,1.694,4.45,11111222 
SCCF RECON,ioos:station:SCCF:56:1,2019-07-12T19:00:00Z,26.4645,-82.1044,1.574,4.15,11111222 
SCCF RECON,ioos:station:SCCF:56:1,2019-07-12T20:00:00Z,26.4645,-82.1044,1.472,4.42,11111222 
SCCF RECON,ioos:station:SCCF:56:1,2019-07-12T21:00:00Z,26.4645,-82.1044,1.38,5.08,11111222 
SCCF RECON,ioos:station:SCCF:56:1,2019-07-12T22:00:00Z,26.4645,-82.1044,1.338,5.42,11111222 
SCCF RECON,ioos:station:SCCF:56:1,2019-07-12T23:00:00Z,26.4645,-82.1044,1.386,4.63,11111222 
SCCF RECON,ioos:station:SCCF:56:1,2019-07-13T04:00:00Z,26.4645,-82.1044,1.838,4.69,11111222 
SCCF RECON,ioos:station:SCCF:56:1,2019-07-13T05:00:00Z,26.4645,-82.1044,1.805,4.12,11111222 
SCCF RECON,ioos:station:SCCF:56:1,2019-07-13T06:00:00Z,26.4645,-82.1044,1.759,4.22,11111222 
SCCF RECON,ioos:station:SCCF:56:1,2019-07-13T07:00:00Z,26.4645,-82.1044,1.703,4.89,11111222 
SCCF RECON,ioos:station:SCCF:56:1,2019-07-13T08:00:00Z,26.4645,-82.1044,1.667,4.82,11111222 
SCCF RECON,ioos:station:SCCF:56:1,2019-07-13T09:00:00Z,26.4645,-82.1044,1.655,4.38,11111222 
SCCF RECON,ioos:station:SCCF:56:1,2019-07-13T10:00:00Z,26.4645,-82.1044,1.716,3.88,11111222 
SCCF RECON,ioos:station:SCCF:56:1,2019-07-13T11:00:00Z,26.4645,-82.1044,1.785,3.01,11111222 
SCCF RECON,ioos:station:SCCF:56:1,2019-07-13T12:00:00Z,26.4645,-82.1044,1.885,3.08,11111222 
SCCF RECON,ioos:station:SCCF:56:1,2019-07-13T13:00:00Z,26.4645,-82.1044,1.975,3.13,11111222 
SCCF RECON,ioos:station:SCCF:56:1,2019-07-13T14:00:00Z,26.4645,-82.1044,2.026,3.54,11111222 
SCCF RECON,ioos:station:SCCF:56:1,2019-07-13T15:00:00Z,26.4645,-82.1044,2.056,4.77,11111222 
SCCF RECON,ioos:station:SCCF:56:1,2019-07-13T16:00:00Z,26.4645,-82.1044,2.012,4.44,11111222 
SCCF RECON,ioos:station:SCCF:56:1,2019-07-13T17:00:00Z,26.4645,-82.1044,1.933,5.45,11111222 
SCCF RECON,ioos:station:SCCF:56:1,2019-07-13T18:00:00Z,26.4645,-82.1044,1.812,5.82,11111222 
SCCF RECON,ioos:station:SCCF:56:1,2019-07-13T19:00:00Z,26.4645,-82.1044,1.672,6.37,11111222 
SCCF RECON,ioos:station:SCCF:56:1,2019-07-13T20:00:00Z,26.4645,-82.1044,1.527,5.42,11111222 
SCCF RECON,ioos:station:SCCF:56:1,2019-07-13T21:00:00Z,26.4645,-82.1044,1.402,5.22,11111222 